Regional Weather Roundup
Issued by NWS

Home | Current Version | Previous Version | Text Only | Print | Product List | Glossary Off
Versions: 1 2 3 4 5 6 7 8 9 10 11 12 13 14 15 16 17 18 19 20 21 22 23 24 25 26 27

000
ASUS45 KSLC 162210
RWRUT

UTAH REGIONAL WEATHER ROUNDUP
NATIONAL WEATHER SERVICE SALT LAKE CITY UT
400 PM MDT WED AUG 16 2017

UTZ001>011-023>025-162300-

NORTHERN UTAH

CITY           SKY/WX    TMP DP  RH WIND       PRES   REMARKS
BRIGHAM CITY   MOSUNNY   85  28  12 CALM      30.05F
DUGWAY         PTSUNNY   89  32  13 NW9G16    30.02F
HILL AFB       MOSUNNY   82  37  19 NW9       30.08F
LOGAN          MOSUNNY   86  37  17 CALM      30.05F
OGDEN          SUNNY     85  36  17 E6        30.05F
SALT LAKE CITY MOSUNNY   88  35  15 NW8       30.03F
TOOELE VALLEY  MOSUNNY   86  41  20 N13       30.04F
WENDOVER       MOSUNNY   86  34  15 E9        30.03F
HEBER CITY     PTSUNNY   79  32  18 SW3       30.12F
WEST JORDAN    MOSUNNY   83  49  30 CALM      30.07F

$$

UTZ011>015-024>027-162300-

CENTRAL/NORTHEAST UTAH

CITY           SKY/WX    TMP DP  RH WIND       PRES   REMARKS
PROVO AIRPORT  PTSUNNY   85  34  16 W5        30.06F
MOAB/CANYONLAN SUNNY     88  28  11 NW9       30.01F
DELTA          MOSUNNY   86  32  14 NW6       30.05F
PRICE          MOSUNNY   80  33  18 S5        30.12F
RICHFIELD      MOSUNNY   81  39  22 S17       30.13
ROOSEVELT      SUNNY     81  34  18 E9        30.12F
VERNAL         SUNNY     77  42  28 CALM      30.12F

$$

UTZ013>016-019>022-027-162300-

SOUTHERN UTAH

CITY           SKY/WX    TMP DP  RH WIND       PRES   REMARKS
BRYCE CANYON   PTSUNNY   72  33  24 SW5       30.27S
CEDAR CITY     MOSUNNY   86  32  14 SW9G16    30.11S
MILFORD        MOSUNNY   89  31  12 N7        30.05F
ST GEORGE      MOCLDY    94  36  13 VRB7      29.92F
HANKSVILLE     MOSUNNY   88  32  13 S8        30.04F
BLANDING       SUNNY     82  27  13 SW5       30.20F

$$

REGIONAL REPORTS     COLORADO/ARIZONA

CITY           SKY/WX    TMP DP  RH WIND       PRES   REMARKS
CRAIG, CO      MOSUNNY   77  32  19 NW8       30.17F
GRAND JUNCTION SUNNY     86  29  12 W12G20    30.04F
RIFLE, CO      MOSUNNY   79  35  20 W14       30.10S
MONTROSE, CO   SUNNY     81  36  19 N9        30.13F
CORTEZ, CO     SUNNY     82  22  11 VRB5      30.14F
COLORADO CITY    N/A     90  32  12 S3G9      30.10F
PAGE, AZ       SUNNY     91  28  10 NW8       30.02F
GRAND CANYON   PTSUNNY   77  31  18 SW17G24   30.23S
KINGMAN, AZ    SUNNY     91  40  16 VRB6      29.99F
FLAGSTAFF, AZ  SUNNY     72  32  23 VRB7      30.26F

$$

REGIONAL REPORTS    NEVADA/IDAHO/WYOMING

CITY           SKY/WX    TMP DP  RH WIND       PRES   REMARKS
LAS VEGAS, NV  MOSUNNY   97  38  13 VRB5      29.88F HX  92
ELY, NY        CLOUDY    72  41  32 NE20      30.19R
ELKO, NV       PTSUNNY   86  30  13 VRB5      30.07F
POCATELLO, ID  MOSUNNY   86  34  15 W15G24    30.05F
BURLEY, ID     SUNNY     83  40  21 W10       30.02F
FORT BRIDGER,    N/A     74  30  19 W18G24    30.24S
EVANSTON, WY   CLOUDY    70  35  27 N9        30.22F
ROCK SPRINGS,  MOSUNNY   74  32  21 W9G24     30.19F
KEMMERER, WY     N/A     73  30  20 W13G25    30.22F

$$




USA.gov is the U.S. government's official web portal to all federal, state and local government web resources and services.